Preview of NWS' New Version of Forecast
This preview is not operational and should not be used for support decisions.

Regional Weather Roundup (RWR)

Issued by National Weather Service (NWS)

                            
800 
NZUS99 KTBW 200517
RWRTPA
FLORIDA REGIONAL WEATHER ROUNDUP
NATIONAL WEATHER SERVICE TAMPA BAY RUSKIN FL
100 AM EDT WED JUN 20 2018

NOTE: "FAIR" INDICATES FEW OR NO CLOUDS BELOW 12,000 FEET WITH NO
SIGNIFICANT WEATHER AND/OR OBSTRUCTIONS TO VISIBILITY.


  
STATION/POSITION



FLZ042-048>051-055-056-060-061-200600-
EXTRA STATIONS
  
CITY           SKY/WX    TMP DP  RH WIND       PRES   REMARKS
Everglades Cty NOT AVBL                                               
CRYSTAL RIVER  FAIR      77  75  94 CALM      29.99S                  
SEBRING        FAIR      76  70  81 E3        30.00S                  
EGLIN AFB      PTCLDY    80  72  76 W5        29.97F                  
CANAVERAL      FAIR      76  70  81 S6        29.98F                  

$$
FLZ001>010-012>015-200600-
PANHANDLE FLORIDA
  
CITY           SKY/WX    TMP DP  RH WIND       PRES   REMARKS
PENSACOLA      FAIR      82  74  76 W6        29.98S                  
PENSACOLA NAS  FAIR      79  75  87 NW3       29.97S                  
MILTON NAS     FAIR      77  74  90 W5        29.98                   
CRESTVIEW      FAIR      80  72  76 W5        29.99S                  
VALPARAISO     PTCLDY    81  73  76 W5        29.97S                  
MARY ESTHER    CLEAR     82  75  78 NW6       29.96F                  
PANAMA CITY    FAIR      80  75  84 W5        29.96F                  
TYNDALL AFB    FAIR      83  77  81 W9          N/A  HX  92           
APALACHICOLA   FAIR      81  79  94 W6        29.96F HX  90           

STATION/POSITION


29.2N   88.2W
28.8N   86.0W

$$
FLZ011-016>039-200600-
NORTH FLORIDA
  
CITY           SKY/WX    TMP DP  RH WIND       PRES   REMARKS
MARIANNA       FAIR      80  73  79 SW5       29.95S                  
TALLAHASSEE    FAIR      82  74  76 W6        29.95S                  
PERRY          FAIR      81  77  89 CALM      29.96F                  
CROSS CITY     CLOUDY    79 N/A N/A S6        29.97F                  
GAINESVILLE    CLOUDY    78  74  87 CALM      30.01S                  
MAYPORT NAS    FAIR      77  75  93 SW6       29.97R                  
JACKSONVILLE   FAIR      75  74  96 CALM      29.96S                  
JAX NAS        FAIR      78  74  87 VRB3      29.98S                  
JAX CRAIG      FAIR      79  77  94 SW3       29.97S                  
ST AUGUSTINE   FAIR      77  73  87 SW7       29.99R                  

STATION/POSITION


KEATON BEACH
31.4N   80.9W
ST AUGUSTINE

$$
FLZ040-043>046-052-053-057-058-063-200600-
CENTRAL FLORIDA
  
CITY           SKY/WX    TMP DP  RH WIND       PRES   REMARKS
OCALA          FAIR      75  74  96 CALM      30.00S FOG              
LEESBURG       FAIR      81  77  88 CALM      30.00S                  
SANFORD        FAIR      80  70  71 S7        29.98F                  
ORLANDO EXEC   FAIR      77  70  79 SE5       29.99F                  
ORLANDO INTL   FAIR      77  70  79 SE3       30.00F                  
KISSIMMEE      FAIR      78  70  76 CALM      30.01F                  
WINTER HAVEN   FAIR      81  68  64 E5        30.01F                  
LAKELAND       FAIR      79  68  69 E3        30.00S                  
BARTOW         FAIR      73  72  94 CALM      30.00F                  

$$
FLZ041-047-054-059-064-200600-
EAST CENTRAL FLORIDA
  
CITY           SKY/WX    TMP DP  RH WIND       PRES   REMARKS
DAYTONA BEACH  FAIR      77  70  79 S5        29.99F                  
JFK SPACE CTR  FAIR     N/A N/A N/A S3          N/A                   
PATRICK AFB    FAIR      79  71  76 S6        29.99S                  
MELBOURNE      FAIR      78  69  73 S3        30.00S                  
VERO BEACH     FAIR      72  69  90 CALM      30.00S                  
FT PIERCE      FAIR      71  70  96 CALM      30.00S                  
STUART         FAIR      77  70  78 CALM      30.01S                  

STATION/POSITION


28.9N   78.5W

$$
FLZ042-048>051-055-056-060-061-200600-
WEST CENTRAL FLORIDA
  
CITY           SKY/WX    TMP DP  RH WIND       PRES   REMARKS
BROOKSVILLE    FAIR      76  75  97 CALM      30.00S                  
TAMPA          FAIR      83  77  82 CALM      30.00R HX  92           
MACDILL AFB    FAIR      79  77  94 NE3       29.99S                  
ST PETERSBURG  FAIR      82  78  88 N3        29.99R HX  91           
ST PET-WHITTED FAIR      83  80  91 CALM      29.97S HX  95           
SARASOTA       FAIR      79  78  97 CALM      29.97S                  

STATION/POSITION


CEDAR KEY
VENICE

$$
FLZ062-065-066-069-070-075>078-200600-
SOUTHWEST FLORIDA AND KEYS
  
CITY           SKY/WX    TMP DP  RH WIND       PRES   REMARKS
PUNTA GORDA    FAIR      78  70  76 E5        29.99F                  
FT MYERS       FAIR      80  71  74 E3        29.97F                  
SOUTHWEST INTL FAIR      78  74  87 NE5       29.98S                  
NAPLES         FAIR      82  77  84 E5        29.96S HX  90           
MARATHON       FAIR      80  75  84 CALM      29.96F                  
KEY WEST NAS   FAIR      80  74  81 CALM      29.97F                  
KEY WEST INTL  FAIR      82  77  84 W3        29.98F HX  90           

STATION/POSITION


VENICE
26.0N   85.6W
SAND KEY
SOMBRERO KEY
LONG KEY
MOLASSES REEF

$$
FLZ067-068-071>074-200600-
SOUTHEAST FLORIDA 
  
CITY           SKY/WX    TMP DP  RH WIND       PRES   REMARKS
W PALM BEACH   FAIR      79  71  76 SE3       29.99F                  
POMPANO BEACH  FAIR      82  70  66 E3        29.98F                  
FT LAUDER-EXEC FAIR      79  72  79 E5        29.98S                  
FT LAUDERDALE  FAIR      81  74  79 E7        29.97F                  
PEMBROKE PINES FAIR      81  72  74 CALM      29.99F                  
OPA LOCKA      FAIR      80  73  79 E3        29.98F                  
MIAMI          FAIR      80  74  81 E6        29.97F                  
WEST KENDALL   FAIR      75  72  90 CALM      29.97F                  
HOMESTEAD      FAIR      78  74  86 CALM      29.96F                  

STATION/POSITION


FOWEY ROCKS
SETTLEMENT POINT

$$